Location: Br�znic
(45.9167°N, 22.6500°E)
Time: 15:27:48
(UTC+00:00)

Resurs 01 Rocket - Pass Details

Date: 03 March 2021
Orbit: 635 x 643 km, 98.0° (Epoch: 11 April)

Event Time Altitude Azimuth Distance (km) Brightness Sun altitude
Exits shadow 17:35:08 13° 51° (NE) 1,859 3.6 -14.1°
Drops below altitude 10° 17:36:32 10° 32° (NNE) 2,032 3.9 -14.3°
Sets 17:39:53 0° 5° (N) 2,948 5.1 -14.9°
